Weather History for Port Aransas, TX

Change the Weather History Date:

Sunday, February 17, 2013

  Actual Average (KCRP) Record (KCRP)
Temperature  
Mean Temperature 62 °F 61 °F  
Max Temperature 68 °F 71 °F 91 °F (1982)
Min Temperature 55 °F 51 °F 24 °F (1895)
Degree Days  
Heating Degree Days 4 6  
Month to date heating degree days 118  
Since 1 July heating degree days 745  
Cooling Degree Days 0 2  
Month to date cooling degree days 27  
Year to date cooling degree days 57  
Growing Degree Days 12 (Base 50)    
Moisture  
Dew Point 50 °F    
Average Humidity 67    
Maximum Humidity 82    
Minimum Humidity 55    
Precipitation  
Precipitation 0.00 in 0.08 in 0.55 in (1995)
Month to date precipitation 1.13  
Year to date precipitation 2.67  
Snow  
Snow 0.00 in - - ()
Month to date snowfall  
Since 1 July snowfall  
Snow Depth -    
Sea Level Pressure  
Sea Level Pressure 30.15 in    
Wind  
Wind Speed 11 mph (SSE)    
Max Wind Speed 17 mph    
Max Gust Speed 23 mph    
Visibility 10 miles    
Events      
T = Trace of Precipitation, MM = Missing Value Source: NWS Daily Summary

Daily Weather History Graph

Daily Weather History Graph

Search for Another Location

Airport:

Trip Planner

Search our weather history database for the weather conditions in past years. The results will help you decide how hot, cold, wet, or windy it might be!

Date:

Astronomy

Feb. 17, 2013 Rise Set
Actual Time 7:03 AM CST 6:21 PM CST
Civil Twilight 6:39 AM CST 6:45 PM CST
Nautical Twilight 6:12 AM CST 7:12 PM CST
Astronomical Twilight 5:45 AM CST 7:39 PM CST
Moon 11:38 AM CST (2/17) 12:38 AM CST (2/17)
Length of Visible Light 12h 05m
Length of Day
11h 17m
Waxing Crescent, 49% of the Moon is Illuminated
Feb 17
Waxing Crescent
Feb 17
First Quarter
Feb 25
Full
Mar 4
Last Quarter
Mar 11
New

Hourly Weather History & Observations

Time (CST) Temp. Dew Point Humidity Pressure Visibility Wind Dir Wind Speed Gust Speed Precip Events Conditions
12:15 AM 55.4 °F 41.0 °F 58% 30.27 in 10.0 mi South 9.2 mph - N/A   Clear
12:35 AM 57.2 °F 41.0 °F 55% 30.27 in 10.0 mi SSE 10.4 mph - N/A   Clear
12:55 AM 55.4 °F 41.0 °F 58% 30.26 in 10.0 mi South 9.2 mph - N/A   Clear
1:15 AM 55.4 °F 41.0 °F 58% 30.26 in 10.0 mi South 11.5 mph - N/A   Clear
1:35 AM 55.4 °F 41.0 °F 58% 30.26 in 10.0 mi South 12.7 mph - N/A   Clear
1:55 AM 55.4 °F 42.8 °F 63% 30.25 in 10.0 mi South 9.2 mph - N/A   Clear
2:15 AM 55.4 °F 42.8 °F 63% 30.24 in 10.0 mi South 12.7 mph - N/A   Clear
2:35 AM 55.4 °F 44.6 °F 67% 30.24 in 10.0 mi SSW 11.5 mph 18.4 mph N/A   Clear
2:55 AM 55.4 °F 44.6 °F 67% 30.23 in 10.0 mi SSW 10.4 mph - N/A   Clear
3:15 AM 55.4 °F 44.6 °F 67% 30.22 in 10.0 mi South 10.4 mph 17.3 mph N/A   Clear
3:35 AM 55.4 °F 44.6 °F 67% 30.22 in 10.0 mi South 10.4 mph - N/A   Clear
3:55 AM 55.4 °F 44.6 °F 67% 30.22 in 10.0 mi South 11.5 mph - N/A   Clear
4:15 AM 55.4 °F 44.6 °F 67% 30.22 in 10.0 mi South 11.5 mph - N/A   Clear
4:35 AM 55.4 °F 44.6 °F 67% 30.22 in 10.0 mi South 13.8 mph - N/A   Clear
4:55 AM 55.4 °F 44.6 °F 67% 30.22 in 10.0 mi South 11.5 mph - N/A   Clear
5:15 AM 57.2 °F 46.4 °F 67% 30.21 in 10.0 mi South 10.4 mph - N/A   Clear
5:35 AM 57.2 °F 44.6 °F 63% 30.21 in 10.0 mi South 12.7 mph 16.1 mph N/A   Clear
5:55 AM 57.2 °F 44.6 °F 63% 30.22 in 10.0 mi South 9.2 mph - N/A   Clear
6:15 AM 55.4 °F 44.6 °F 67% 30.22 in 10.0 mi South 9.2 mph - N/A   Clear
6:35 AM 55.4 °F 44.6 °F 67% 30.22 in 10.0 mi South 10.4 mph - N/A   Clear
6:55 AM 55.4 °F 44.6 °F 67% 30.22 in 10.0 mi South 9.2 mph - N/A   Clear
7:15 AM 57.2 °F 44.6 °F 63% 30.22 in 10.0 mi South 8.1 mph - N/A   Clear
7:55 AM 59.0 °F 46.4 °F 63% 30.22 in 10.0 mi South 10.4 mph - N/A   Clear
8:15 AM 60.8 °F 46.4 °F 59% 30.23 in 10.0 mi South 8.1 mph - N/A   Clear
8:55 AM 62.6 °F 48.2 °F 59% 30.24 in 10.0 mi South 8.1 mph - N/A   Clear
9:15 AM 62.6 °F 50.0 °F 63% 30.24 in 10.0 mi South 11.5 mph - N/A   Clear
9:35 AM 64.4 °F 50.0 °F 59% 30.24 in 10.0 mi South 12.7 mph - N/A   Clear
9:55 AM 64.4 °F 50.0 °F 59% 30.24 in 10.0 mi South 9.2 mph - N/A   Clear
10:15 AM 64.4 °F 50.0 °F 59% 30.24 in 10.0 mi SSE 11.5 mph - N/A   Clear
10:35 AM 64.4 °F 51.8 °F 64% 30.24 in 10.0 mi SSE 10.4 mph - N/A   Clear
10:55 AM 64.4 °F 51.8 °F 64% 30.23 in 10.0 mi South 11.5 mph - N/A   Clear
11:15 AM 64.4 °F 51.8 °F 64% 30.23 in 10.0 mi South 10.4 mph - N/A   Clear
11:35 AM 66.2 °F 51.8 °F 60% 30.22 in 10.0 mi South 10.4 mph - N/A   Clear
11:55 AM 66.2 °F 51.8 °F 60% 30.21 in 10.0 mi South 11.5 mph - N/A   Clear
12:15 PM 68.0 °F 53.6 °F 60% 30.19 in 10.0 mi South 9.2 mph 16.1 mph N/A   Clear
12:55 PM 68.0 °F 51.8 °F 56% 30.17 in 10.0 mi SSE 12.7 mph 17.3 mph N/A   Mostly Cloudy
1:15 PM 68.0 °F 51.8 °F 56% 30.16 in 10.0 mi SSE 12.7 mph - N/A   Mostly Cloudy
1:35 PM 66.2 °F 51.8 °F 60% 30.15 in 10.0 mi SSE 13.8 mph 17.3 mph N/A   Overcast
1:55 PM 64.4 °F 51.8 °F 64% 30.14 in 10.0 mi SSE 13.8 mph 18.4 mph N/A   Overcast
2:15 PM 64.4 °F 51.8 °F 64% 30.12 in 10.0 mi SSE 13.8 mph 18.4 mph N/A   Overcast
2:35 PM 64.4 °F 51.8 °F 64% 30.11 in 10.0 mi SSE 11.5 mph 17.3 mph N/A   Overcast
2:55 PM 64.4 °F 51.8 °F 64% 30.10 in 10.0 mi SSE 12.7 mph - N/A   Overcast
3:15 PM 64.4 °F 51.8 °F 64% 30.09 in 10.0 mi SSE 15.0 mph 19.6 mph N/A   Overcast
3:35 PM 64.4 °F 53.6 °F 68% 30.09 in 10.0 mi SSE 11.5 mph - N/A   Overcast
3:55 PM 64.4 °F 53.6 °F 68% 30.08 in 10.0 mi SSE 11.5 mph 17.3 mph N/A   Overcast
4:15 PM 64.4 °F 53.6 °F 68% 30.07 in 10.0 mi SSE 11.5 mph 17.3 mph N/A   Overcast
4:35 PM 62.6 °F 53.6 °F 72% 30.07 in 10.0 mi SSE 15.0 mph 23.0 mph N/A   Overcast
4:55 PM 62.6 °F 53.6 °F 72% 30.07 in 10.0 mi SSE 11.5 mph - N/A   Overcast
5:15 PM 62.6 °F 53.6 °F 72% 30.06 in 10.0 mi SSE 13.8 mph 18.4 mph N/A   Overcast
5:35 PM 62.6 °F 53.6 °F 72% 30.06 in 10.0 mi SSE 12.7 mph 17.3 mph N/A   Overcast
5:55 PM 62.6 °F 53.6 °F 72% 30.05 in 10.0 mi SSE 13.8 mph 20.7 mph N/A   Overcast
6:15 PM 62.6 °F 53.6 °F 72% 30.06 in 10.0 mi SSE 15.0 mph 20.7 mph N/A   Overcast
6:35 PM 62.6 °F 53.6 °F 72% 30.05 in 10.0 mi SSE 15.0 mph 20.7 mph N/A   Overcast
6:55 PM 62.6 °F 53.6 °F 72% 30.05 in 10.0 mi SSE 13.8 mph - N/A   Overcast
7:15 PM 62.6 °F 55.4 °F 77% 30.06 in 10.0 mi SSE 12.7 mph 17.3 mph N/A   Overcast
7:35 PM 62.6 °F 53.6 °F 72% 30.05 in 10.0 mi SSE 13.8 mph 19.6 mph N/A   Overcast
7:55 PM 62.6 °F 55.4 °F 77% 30.06 in 10.0 mi SSE 12.7 mph 18.4 mph N/A   Overcast
8:15 PM 62.6 °F 55.4 °F 77% 30.05 in 10.0 mi SSE 13.8 mph 20.7 mph N/A   Overcast
8:35 PM 62.6 °F 55.4 °F 77% 30.05 in 10.0 mi SSE 12.7 mph 19.6 mph N/A   Overcast
8:55 PM 62.6 °F 55.4 °F 77% 30.06 in 10.0 mi SSE 16.1 mph - N/A   Overcast
9:15 PM 62.6 °F 55.4 °F 77% 30.06 in 10.0 mi SSE 15.0 mph 23.0 mph N/A   Overcast
9:35 PM 62.6 °F 55.4 °F 77% 30.06 in 10.0 mi SSE 16.1 mph 21.9 mph N/A   Overcast
9:55 PM 62.6 °F 55.4 °F 77% 30.05 in 10.0 mi SSE 16.1 mph 21.9 mph N/A   Overcast
10:15 PM 62.6 °F 55.4 °F 77% 30.05 in 10.0 mi SSE 16.1 mph 23.0 mph N/A   Overcast
10:35 PM 62.6 °F 55.4 °F 77% 30.04 in 10.0 mi SSE 15.0 mph 20.7 mph N/A   Overcast
10:55 PM 62.6 °F 55.4 °F 77% 30.04 in 10.0 mi SSE 15.0 mph 20.7 mph N/A   Overcast
11:15 PM 62.6 °F 57.2 °F 82% 30.03 in 10.0 mi SSE 12.7 mph 19.6 mph N/A   Overcast
11:35 PM 62.6 °F 57.2 °F 82% 30.02 in 10.0 mi SSE 15.0 mph - N/A   Overcast
11:55 PM 62.6 °F 57.2 °F 82% 30.01 in 10.0 mi SSE 17.3 mph 21.9 mph N/A   Overcast